RH
38 34 28 28 33 35 35 34 45 54 52 51 52 51 49 45 43 45 56 66 64 60 58 62 67 60 54 58 62 60 54 44 45
40 41 42 42 45 54 49 49 57 62 70 65 63 52 48 51 50 51 53 58 62 64 76 81 87 97 93 98 100 88 82 81 79
45 44 43 47 50 56 59 60 62 64 70 68 59 51 51 55 68 63 51 45 38 30 34 33 32 29 32 40 68 47 45 53 64
47 47 48 50 52 62 59 66 66 73 76 71 67 67 73 72 69 62 61 50 44 29 23 20 18 19 21 22 37 27 30 40 73
50 50 53 55 60 72 65 59 68 85 93 100 100 88 67 93 82 72 64 65 29 24 16 15 18 21 24 23 42 29 33 57 58
62 56 59 61 79 88 82 73 70 84 100 100 100 100 100 72 68 69 69 34 27 18 16 17 21 22 32 28 41 45 31 66 95
80 80 90 100 100 100 87 80 81 96 100 100 100 99 73 72 64 73 37 30 21 19 20 19 21 24 30 24 33 36 47 72 92
97 92 94 94 98 98 90 98 100 100 100 100 94 82 72 74 80 52 32 24 19 23 24 23 21 25 33 31 36 33 41 62 100
100 100 100 100 100 100 100 100 100 92 92 88 75 70 81 82 64 40 32 21 22 26 26 23 21 26 37 37 38 37 31 48 94
100 100 100 100 100 100 100 99 100 89 84 72 82 90 98 76 68 38 29 21 23 27 26 24 23 28 35 44 42 42 37 50 74
100 100 100 100 100 100 100 96 93 81 77 89 90 100 96 84 57 38 28 22 28 29 29 29 26 26 38 41 47 46 54 64 75
97 100 100 100 100 100 99 94 91 91 95 100 100 100 92 72 54 35 28 29 32 30 29 29 26 26 32 41 45 47 58 72 76
100 100 100 100 100 100 100 100 96 100 100 100 100 97 80 56 45 34 30 31 32 29 29 28 25 25 27 40 43 44 46 80 86
100 100 100 100 100 98 99 97 100 100 100 100 98 93 66 42 40 36 31 29 33 29 28 27 25 26 26 39 40 37 41 62 81
97 96 97 98 99 100 100 100 100 100 100 100 93 70 55 40 42 38 37 44 35 31 30 28 26 25 24 33 39 36 37 52 78
92 97 100 100 100 100 100 100 100 100 99 85 72 56 43 44 41 40 42 46 38 35 32 29 27 25 24 29 36 34 33 40 76
100 100 100 100 100 100 100 100 100 96 86 58 50 42 43 44 43 44 45 44 38 35 32 29 26 24 25 26 34 33 32 37 55
95 95 96 97 94 98 99 100 90 73 61 46 36 34 44 43 49 51 46 42 39 36 32 29 24 23 24 28 34 35 33 32 38
73 71 66 72 79 86 94 89 81 56 38 33 32 49 39 51 53 53 45 41 39 35 30 28 26 22 24 28 35 36 34 32 34
73 73 77 84 86 81 76 66 55 41 45 42 44 41 44 56 61 56 46 42 36 32 28 24 21 23 28 33 34 32 33 34 32
Wind_Speed
16 15 16 16 14 13 13 12 10 12 12 14 16 16 18 20 23 26 26 29 30 31 32 34 37 40 42 43 45 46 47 48 47
22 20 21 20 19 17 17 17 18 19 18 18 20 21 22 24 26 28 31 33 35 35 35 36 38 40 42 43 46 47 47 47 48
27 25 25 24 22 21 21 21 23 24 24 24 25 26 27 28 28 32 36 38 38 38 38 39 42 44 46 44 50 50 52 52 50
31 30 30 28 26 24 25 26 27 29 27 27 27 28 28 30 32 37 40 42 45 43 43 42 41 41 42 40 46 47 47 49 47
37 35 33 33 32 30 29 28 28 31 33 32 30 30 33 31 35 40 41 47 47 45 41 36 37 41 45 44 48 50 48 48 47
39 39 38 39 37 34 33 31 32 33 37 36 35 35 31 35 40 40 45 48 47 43 37 37 39 41 42 44 47 52 52 47 43
39 40 40 39 38 38 37 37 35 35 37 37 36 35 38 40 40 43 47 47 44 39 38 38 38 40 43 45 47 50 51 50 43
42 42 44 43 43 44 42 40 36 35 36 37 36 39 39 39 41 46 46 44 39 38 38 38 37 41 44 48 48 51 52 48 43
45 45 44 43 43 43 41 41 39 39 41 43 42 38 40 41 45 45 46 40 38 38 40 42 40 43 46 50 50 53 54 49 41
49 47 47 46 44 45 44 44 44 42 42 41 39 40 43 45 48 46 44 39 40 41 43 42 43 44 47 51 52 55 57 54 39
52 50 49 49 49 48 48 47 45 43 41 40 41 43 46 47 49 47 44 39 40 41 42 43 44 46 48 50 53 55 55 54 47
56 54 54 54 53 52 51 49 45 43 42 41 45 49 50 52 53 49 42 39 39 40 42 43 45 47 49 51 52 53 52 57 51
57 57 56 57 55 54 52 48 45 44 44 49 49 51 53 55 52 47 43 42 42 41 42 44 47 49 49 50 52 55 50 53 51
59 56 54 54 53 52 50 48 48 52 54 55 55 55 56 55 52 46 45 45 43 43 43 45 48 51 51 51 53 54 51 52 48
62 59 56 54 52 51 52 55 57 59 60 61 58 58 57 52 49 46 44 42 43 45 46 47 50 52 54 54 54 56 53 50 49
62 60 57 56 56 59 62 62 63 64 65 62 60 58 54 52 49 44 44 44 44 46 47 49 51 54 55 56 55 57 56 49 50
67 64 64 66 67 67 67 68 67 67 66 63 59 57 53 50 47 46 47 46 44 46 49 52 54 55 56 57 55 57 58 53 49
73 73 74 73 73 72 72 71 69 67 66 64 60 56 50 46 47 48 47 45 46 48 51 53 56 58 57 59 57 56 57 57 53
77 76 75 74 73 73 71 71 70 68 65 62 58 51 47 48 50 48 46 47 49 50 53 56 58 60 59 58 59 57 56 56 56
80 80 79 77 77 77 76 73 70 65 62 58 53 50 49 50 50 48 48 49 50 52 55 57 58 59 60 59 61 61 57 56 58
Wind_Direction
235 233 229 229 231 237 245 251 252 264 265 269 272 277 283 291 301 305 303 303 303 304 304 304 304 306 307 304 301 303 306 309 312
244 236 238 239 242 251 250 254 262 270 272 273 272 276 289 300 306 307 307 306 302 299 299 302 304 305 305 306 304 308 311 311 310
249 248 246 245 248 256 253 258 258 260 263 269 278 286 296 302 303 302 308 309 307 309 308 306 302 301 304 299 301 305 307 309 309
238 246 247 246 256 255 258 262 265 268 265 271 279 286 289 291 297 304 307 311 314 315 312 311 311 311 313 315 309 313 311 308 307
241 243 243 247 258 254 256 263 269 271 268 268 268 277 283 287 299 305 305 310 311 313 314 315 319 320 316 318 317 317 317 311 310
240 242 245 253 256 256 259 261 267 267 268 269 276 282 286 291 298 302 307 308 311 313 315 322 323 323 321 320 316 318 325 318 314
243 246 249 250 253 255 258 266 266 268 272 276 280 282 287 293 296 302 307 308 309 312 318 319 322 324 322 326 322 320 325 319 316
246 247 250 251 253 256 259 263 268 267 269 269 274 279 285 289 295 302 305 305 306 312 316 319 319 326 328 328 324 327 327 322 314
245 246 247 247 252 258 262 263 264 266 270 274 277 281 283 288 301 301 306 303 303 308 312 315 320 325 327 328 328 326 330 328 318
244 246 249 247 250 254 257 262 266 269 273 274 276 281 283 291 300 301 302 298 300 305 308 315 320 324 328 327 330 325 330 330 324
246 244 246 246 249 251 257 263 265 270 270 272 275 281 284 294 299 299 297 293 297 302 308 315 319 324 327 326 328 327 328 326 320
248 246 245 247 249 253 258 262 265 267 267 268 273 284 290 295 296 296 292 290 294 301 307 314 318 321 327 326 326 325 327 324 320
246 246 246 250 252 255 257 259 261 263 266 270 276 283 288 293 292 291 285 286 294 300 304 311 316 320 325 324 324 324 326 323 317
247 247 246 249 250 253 255 257 261 264 267 274 276 283 287 289 288 284 281 284 289 296 302 309 313 316 322 324 323 324 324 323 318
246 247 248 250 251 251 253 257 262 268 272 276 281 282 285 284 281 278 281 283 289 294 301 306 310 313 318 323 321 321 321 322 317
247 249 249 250 249 253 256 261 265 267 271 275 278 281 280 278 275 274 277 281 287 294 300 303 308 312 315 320 320 319 321 320 317
243 245 245 247 251 254 258 261 264 268 270 273 275 276 275 271 271 272 274 280 287 293 298 302 306 310 312 315 318 318 318 317 316
243 243 246 250 253 256 259 262 264 266 269 271 272 271 266 267 267 269 273 280 287 291 295 301 305 307 309 313 316 316 315 314 314
246 248 250 252 254 256 258 261 264 266 268 269 270 263 261 262 266 268 273 280 286 290 296 300 302 304 308 311 314 313 312 310 311
245 247 249 250 252 255 258 260 262 264 263 263 259 256 258 262 265 268 276 281 285 291 294 297 300 303 306 309 311 313 311 309 308